Skip Page Navigation
NASA JPL Caltech
NASA Logo - Jet Propulsion Laboratory + View the NASA Portal
+ Center for Near-Earth Object Studies
JPL Home Earth Solar System Stars & Galaxies Technology
JPL Solar System Dynamics
BODIES ORBITS EPHEMERIDES TOOLS PHYSICAL DATA DISCOVERY FAQ SITE MAP
IMPORTANT: The SSD Announcement email list is now available. Major changes are coming in the near future, including possible hostname and/or URL changes. To be notified of such changes, subscribe to this email list.

Please visit this page for more details.


JPL Small-Body Database Browser
Search: [ help ]  
351579 (2005 UF326)
Classification: Main-belt Asteroid          SPK-ID: 2351579
Ephemeris | Orbit Diagram | Orbital Elements | Mission Design | Physical Parameters | Discovery Circumstances ]

[ show orbit diagram ]
Orbital Elements at Epoch 2458600.5 (2019-Apr-27.0) TDB
Reference: JPL 13 (heliocentric ecliptic J2000)
 Element Value Uncertainty (1-sigma)   Units 
e .1384044526772695 5.9486e-08  
a 2.204282963716682 1.3851e-08 au
q 1.899200386577645 1.3378e-07 au
i 8.738239573945684 6.4702e-06 deg
node 70.26794086658596 3.717e-05 deg
peri 275.5338378666947 4.3672e-05 deg
M 80.84062415925105 2.4012e-05 deg
tp 2458332.072751143755
(2018-Aug-01.57275114)
7.9924e-05 TDB
period 1195.361992726401
3.27
1.1267e-05
3.085e-08
d
yr
n .3011640006881148 2.8387e-09 deg/d
Q 2.509365540855719 1.5769e-08 au
  Orbit Determination Parameters
   # obs. used (total)      182  
   data-arc span      9540 days (26.12 yr)  
   first obs. used      1992-11-18  
   last obs. used      2019-01-01  
   planetary ephem.      DE431  
   SB-pert. ephem.      SB431-N16  
   condition code      0  
   norm. resid. RMS      .68057  
   source      ORB  
   producer      Otto Matic  
   solution date      2019-Jul-14 06:35:51  

Additional Information
 Earth MOID = .915568 au 
 Jupiter MOID = 2.89173 au 
 T_jup = 3.635 
[ show covariance matrix ]

Ephemeris | Orbit Diagram | Orbital Elements | Mission Design | Physical Parameters | Discovery Circumstances ]

Physical Parameter Table
Parameter Symbol Value Units Sigma Reference Notes
absolute magnitude H 17.6   n/a MPO455544  

351579 (2005 UF326)          Discovered 2005-Oct-29 by Mt. Lemmon Survey at Mount Lemmon
Reference: 20130127/Numbers.arcLast Updated: 2013-01-31
Ephemeris | Orbit Diagram | Orbital Elements | Mission Design | Physical Parameters | Discovery Circumstances ]
ABOUT SSD CREDITS/AWARDS PRIVACY/COPYRIGHT GLOSSARY LINKS
FirstGov
(server date/time)  
NASA Home Page
Site Manager:   Ryan S. Park
Webmaster  Alan B. Chamberlin